Location: Kolin
(50.0330°N, 15.2000°E)
Time: 11:26:42
(UTC+02:00)

ISS - Pass Details

Date: 18 May 2021
Orbit: 417 x 422 km, 51.6° (Epoch: 13 June)

Event Time Altitude Azimuth Distance (km) Brightness Sun altitude
Rises 01:17:34 0° 285° (WNW) 2,370 0.2 -20.2°
Reaches altitude 10° 01:19:40 10° 286° (WNW) 1,506 -0.8 -20.2°
Enters shadow 01:22:48 76° 291° (WNW) 439 -3.8 -20.2°
